sat.trackr.live / text

‹ back to catalog

STARLINK-37459

NORAD 68814 · 2026-089N

PAYLOAD ACTIVE UNKNOWN

§ Identity

Operator
Country
US
Launch date
2026-04-23
Launch site
AFWTR
Launch vehicle
Mass (kg)
RCS (m²)

Purposes: comms

External: N2YO · Heavens-Above · Gunter

§ Orbital elements

Epoch: 2026-09-20T00:14:49.480224Z

Period
93.91 min
Inclination
97.2863°
Eccentricity
0.0001400
Mean motion
15.33461304 rev/d
Perigee alt
464.5 km
Apogee alt
466.5 km
Semi-major
6,843.6 km
B*
7.1206e-4
RAAN
108.7749°
Arg perigee
82.5113°
Mean anomaly
277.6289°
Rev number
2,318

§ Raw data

STARLINK-374591 68814U 26089N   26263.01029491  .00022995  00000+0  71206-3 0  99922 68814  97.2863 108.7749 0001400  82.5113 277.6289 15.33461304 23180

JSON: /api/v1/satellites/68814 · /tle

For live sub-satellite position, see the globe view (requires WebGL).

§ Visibility from observer

Set your observer location to see the next 7 days of passes ≥ 10°. The values pass through the URL so the page stays shareable.

No JS? Fill the form by hand. The geolocation button needs JavaScript.